DW9750 Weather Reports


time (UTC)temp
C
wind
direction
speed
KPH
gust
KPH
rain 1hr
cm
rain 24hr
cm
rain mn
cm
humidity
%
barometer
mb
20260508224531 24 115 3.2 8.0 0.00 0.00 0.00 79 1007.8
20260508223040 24 175 3.2 9.7 0.00 0.00 0.00 80 1007.8
20260508221524 23 87 6.4 11.3 0.00 0.00 0.00 79 1007.7
20260508220028 23 130 6.4 11.3 0.00 0.00 0.00 79 1007.8
20260508214539 23 96 4.8 11.3 0.00 0.00 0.00 80 1007.9
20260508213019 23 128 4.8 11.3 0.00 0.00 0.00 78 1008.1
20260508211517 24 128 0.0 9.7 0.00 0.00 0.00 79 1008.3
20260508210016 24 101 4.8 11.3 0.00 0.00 0.00 78 1008.4
20260508204517 24 108 4.8 14.5 0.00 0.00 0.00 78 1008.6
20260508203016 24 108 4.8 12.9 0.00 0.00 0.00 79 1008.7
20260508201511 23 72 4.8 11.3 0.00 0.00 0.00 78 1008.8
20260508200008 23 45 1.6 12.9 0.00 0.00 0.00 79 1009.0
20260508194504 23 92 3.2 8.0 0.00 0.00 0.00 80 1009.3
20260508193001 23 108 1.6 8.0 0.00 0.00 0.00 80 1009.4
20260508191603 23 45 1.6 8.0 0.00 0.00 0.00 80 1009.5
20260508190107 22 106 3.2 8.0 0.00 0.00 0.00 82 1009.7
20260508184600 22 128 3.2 9.7 0.00 0.00 0.00 81 1009.8
20260508183111 22 104 0.0 6.4 0.00 0.00 0.00 81 1010.1
20260508181552 22 92 1.6 6.4 0.00 0.00 0.00 81 1010.4
20260508180101 22 217 1.6 8.0 0.00 0.00 0.00 79 1010.7
20260508174603 23 159 1.6 11.3 0.00 0.00 0.00 80 1010.7
20260508173044 22 158 1.6 4.8 0.00 0.00 0.00 83 1010.9
20260508171540 21 113 1.6 4.8 0.00 0.00 0.00 83 1011.1
20260508170041 20 315 0.0 4.8 0.00 0.00 0.00 83 1011.5
20260508164544 20 269 1.6 6.4 0.00 0.00 0.00 82 1011.7
20260508163032 18 230 0.0 4.8 0.00 0.00 0.00 86 1011.7
20260508161525 18 102 1.6 4.8 0.00 0.00 0.00 87 1012.1
20260508160021 17 267 0.0 3.2 0.00 0.00 0.00 87 1012.5
20260508154520 17 282 0.0 3.2 0.00 0.00 0.00 87 1012.9
20260508153029 17 272 0.0 4.8 0.00 0.00 0.00 87 1012.9
20260508151518 17 254 0.0 1.6 0.00 0.00 0.00 88 1012.9
20260508150016 16 119 0.0 3.2 0.00 0.00 0.00 87 1013.1
20260508144524 17 158 0.0 3.2 0.00 0.00 0.00 87 1013.1
20260508143014 16 223 0.0 1.6 0.00 0.00 0.00 87 1013.1
20260508141513 16 274 0.0 4.8 0.00 0.00 0.00 89 1013.3
20260508140020 16 267 1.6 6.4 0.00 0.00 0.00 88 1013.2
20260508134510 16 284 0.0 1.6 0.00 0.00 0.00 89 1013.0
20260508133010 16 272 1.6 4.8 0.00 0.00 0.00 88 1013.3
20260508131508 16 278 0.0 1.6 0.00 0.00 0.00 89 1012.9
20260508130017 16 278 0.0 1.6 0.00 0.00 0.00 89 1013.0
20260508124507 16 40 0.0 3.2 0.00 0.00 0.00 89 1013.0
20260508123012 16 16 0.0 3.2 0.00 0.00 0.00 89 1012.8
20260508121610 16 8 0.0 1.6 0.00 0.00 0.00 89 1013.0
20260508120004 16 71 0.0 0.0 0.00 0.00 0.00 88 1013.1
20260508114502 16 72 0.0 3.2 0.00 0.00 0.00 87 1013.3
20260508113004 16 83 0.0 4.8 0.00 0.00 0.00 87 1013.4
20260508111600 16 97 0.0 3.2 0.00 0.00 0.00 86 1013.4
20260508110109 16 55 0.0 0.0 0.00 0.00 0.00 86 1013.4
20260508104559 16 55 0.0 3.2 0.00 0.00 0.00 85 1013.4
20260508103108 16 61 0.0 0.0 0.00 0.00 0.00 84 1013.4
20260508101558 16 61 0.0 0.0 0.00 0.00 0.00 84 1013.5
20260508100056 16 61 0.0 0.0 0.00 0.00 0.00 83 1013.0
20260508094557 16 61 0.0 0.0 0.00 0.00 0.00 83 1013.1
20260508093105 16 61 0.0 3.2 0.00 0.00 0.00 82 1013.2
20260508091556 16 80 0.0 1.6 0.00 0.00 0.00 82 1013.4
20260508084558 16 94 0.0 3.2 0.00 0.00 0.00 82 1013.0
20260508083052 16 77 0.0 3.2 0.00 0.00 0.00 82 1013.2
20260508081550 16 147 0.0 0.0 0.00 0.00 0.00 83 1013.7
20260508080055 16 147 0.0 0.0 0.00 0.00 0.00 83 1013.7
20260508074550 16 147 0.0 0.0 0.00 0.00 0.00 81 1014.1
20260508073048 16 147 0.0 0.0 0.00 0.00 0.00 80 1013.8
20260508071547 16 147 0.0 1.6 0.00 0.00 0.00 79 1014.0
20260508070046 16 149 0.0 0.0 0.00 0.00 0.00 79 1014.2
20260508064545 16 149 0.0 3.2 0.00 0.00 0.00 78 1014.2
20260508063058 16 95 0.0 3.2 0.00 0.00 0.00 78 1014.0
20260508061547 16 176 0.0 0.0 0.00 0.00 0.00 79 1013.6
20260508060045 16 176 0.0 0.0 0.00 0.00 0.00 79 1013.5
20260508054542 16 115 0.0 3.2 0.00 0.00 0.00 79 1013.5
20260508053042 16 32 0.0 3.2 0.00 0.00 0.00 79 1014.8
20260508051541 16 279 0.0 3.2 0.00 0.00 0.00 79 1014.7
20260508050042 16 69 0.0 3.2 0.00 0.00 0.00 79 1014.5
20260508044536 16 319 0.0 4.8 0.00 0.00 0.00 78 1014.3
20260508043052 16 348 0.0 4.8 0.00 0.00 0.00 78 1014.9
20260508041538 16 295 4.8 11.3 0.00 0.00 0.00 78 1015.4
20260508040038 16 335 1.6 11.3 0.00 0.00 0.00 78 1014.4
20260508034533 16 94 0.0 6.4 0.00 0.00 0.00 77 1013.6
20260508033032 16 76 0.0 6.4 0.00 0.00 0.00 76 1013.6
20260508031531 16 83 1.6 6.4 0.00 0.00 0.00 77 1013.5
20260508030039 16 68 0.0 0.0 0.00 0.00 0.00 77 1014.5
20260508024531 17 94 0.0 0.0 0.00 0.00 0.00 77 1014.5
20260508023030 17 61 0.0 3.2 0.00 0.00 0.00 77 1015.0
20260508021530 17 346 0.0 0.0 0.00 0.00 0.00 76 1014.9
20260508020035 17 298 1.6 8.0 0.00 0.00 0.00 76 1014.7
20260508014528 17 289 4.8 11.3 0.00 0.00 0.00 75 1014.2
20260508013028 17 91 3.2 8.0 0.00 0.00 0.00 74 1012.2
20260508011528 17 299 1.6 4.8 0.00 0.00 0.00 75 1013.6
20260508010028 17 117 3.2 6.4 0.00 0.00 0.00 75 1012.3
20260508004526 17 66 3.2 8.0 0.00 0.00 0.00 74 1012.7
20260508003026 17 75 0.0 4.8 0.00 0.00 0.00 75 1013.0
20260508001541 17 78 1.6 6.4 0.00 0.00 0.00 74 1012.9
20260508000025 17 289 0.0 9.7 0.00 0.00 0.00 70 1012.7
20260507234525 18 320 8.0 22.5 0.00 0.00 0.00 70 1013.2
20260507233022 18 89 6.4 11.3 0.00 0.00 0.00 70 1013.3
20260507231531 18 40 6.4 16.1 0.00 0.00 0.00 71 1013.7
20260507230025 18 113 6.4 11.3 0.00 0.00 0.00 72 1013.7